User: anonymous   Login
Location: Unspecified
(0.0000°N, 0.0000°E)
Time: 17:53:54
(UTC+00:00)
Language:

ATS 6 - Orbit

View from above orbital plane
View from above orbital plane
View from above satellite
View from above satellite

Ground track
Ground track

The orbit data is extracted from the following two-line orbital elements,

1  7318U 74039A   23274.53927396 -.00000267  00000-0  00000+0 0  9999
2  7318   4.4295 273.5698 0031032 296.6610  80.3567  1.01980931112043
Epoch (UTC): 01 October 2023 12:56:33
Eccentricity: 0.0031032
inclination: 4.4295°
perigee height: 35184 km
apogee height: 35443 km
right ascension of ascending node: 273.5698°
argument of perigee: 296.6610°
revolutions per day: 1.01980931
mean anomaly at epoch: 80.3567°
orbit number at epoch: 11204

The dashed part of the orbit path shows where the satellite is in the earth's shadow,  

DLR